Terug naar catalogus

KUIPER-00259

ActiefCommunicatieLEO
NORAD 67786·PAYLOAD·🇺🇸 United States

Gelanceerd Feb 12, 2026 vanaf Guiana Space Centre

Loading…

Volgende Passages (komende 24 uur)

TLE

VersSource: CelesTrak SupGP

Epoch: Sep 14, 2026, 21:15 UTC

1 67786C 26030Y   26257.88587963  .00005004  00000+0  65521-3 0  2578
2 67786  51.8972  81.4792 0000723 112.2684 243.7990 14.79916891    15

Volg KUIPER-00259 in realtime met AllMySat

Download on the App Store